Orbital Elements at Epoch 2459200.5 (2020-Dec-17.0) TDB
Reference: JPL 30 (heliocentric ecliptic J2000)
Element | Value | Uncertainty (1-sigma) | Units |
e | .1661131292690156 | 3.0958e-08 | |
a | 2.283263182075404 | 6.0724e-09 | au |
q | 1.903983189956129 | 7.0518e-08 | au |
i | 5.428324388797429 | 4.1652e-06 | deg |
node | 167.7503714241228 | 3.2131e-05 | deg |
peri | 248.5673202421935 | 3.4364e-05 | deg |
M | 175.1394209925996 | 1.253e-05 | deg |
tp | 2458587.424732645105 (2019-Apr-13.92473265) | 4.2873e-05 | TDB |
period | 1260.179433030603 3.45 | 5.0272e-06 1.376e-08 | d yr |
n | .2856736037456481 | 1.1396e-09 | deg/d |
Q | 2.66254317419468 | 7.0811e-09 | au |
|
| | Orbit Determination Parameters
Additional Information
|